DW3478 Weather Reports


time (UTC)temp
C
wind
direction
speed
KPH
gust
KPH
rain 1hr
cm
rain 24hr
cm
rain mn
cm
humidity
%
barometer
mb
20260902203805 22 236 0.0 0.0 0.00 0.03 0.03 85 1019.0
20260902203304 22 236 0.0 0.0 0.00 0.03 0.03 85 1019.0
20260902200805 22 257 1.6 3.2 0.00 0.03 0.03 83 1019.0
20260902200305 22 257 1.6 4.8 0.00 0.03 0.03 82 1019.0
20260902195306 22 223 1.6 3.2 0.00 0.03 0.03 80 1019.0
20260902194804 22 223 1.6 3.2 0.00 0.03 0.03 80 1019.0
20260902194305 23 260 1.6 4.8 0.00 0.03 0.03 79 1019.0
20260902193305 23 209 0.0 3.2 0.00 0.03 0.03 79 1019.0
20260902192804 23 209 0.0 3.2 0.00 0.03 0.03 79 1019.0
20260902192307 23 209 0.0 1.6 0.00 0.03 0.03 79 1019.0
20260902191804 23 209 0.0 3.2 0.00 0.03 0.03 79 1019.0
20260902190804 23 176 1.6 4.8 0.00 0.03 0.03 78 1019.0
20260902185805 23 186 3.2 4.8 0.00 0.03 0.03 78 1019.0
20260902184304 23 153 3.2 4.8 0.00 0.03 0.03 78 1019.0
20260902182805 23 154 1.6 8.0 0.00 0.03 0.03 79 1020.0
20260902182306 23 130 4.8 9.7 0.00 0.03 0.03 79 1020.0
20260902181804 23 148 4.8 9.7 0.00 0.03 0.03 78 1020.0
20260902181305 23 162 4.8 9.7 0.00 0.03 0.03 78 1020.0
20260902180804 23 171 6.4 12.9 0.00 0.03 0.03 79 1020.0
20260902175307 23 151 6.4 11.3 0.00 0.03 0.03 79 1020.0
20260902174805 23 124 6.4 11.3 0.00 0.03 0.03 79 1020.0
20260902174305 23 181 6.4 9.7 0.00 0.03 0.03 79 1020.0
20260902172805 24 136 8.0 11.3 0.00 0.03 0.03 77 1020.0
20260902171805 24 152 4.8 11.3 0.00 0.03 0.03 75 1020.0
20260902165805 24 146 6.4 11.3 0.00 0.03 0.03 76 1020.0
20260902164304 24 167 6.4 11.3 0.00 0.03 0.03 75 1020.0
20260902163804 25 139 6.4 11.3 0.00 0.03 0.03 74 1020.0
20260902163304 25 155 9.7 14.5 0.00 0.03 0.03 74 1020.0
20260902162307 25 166 8.0 14.5 0.00 0.03 0.03 74 1020.0
20260902155804 25 175 11.3 19.3 0.00 0.03 0.03 73 1021.0
20260902155307 25 154 9.7 16.1 0.00 0.03 0.03 74 1021.0
20260902154804 25 155 11.3 16.1 0.00 0.03 0.03 73 1021.0
20260902154305 25 153 11.3 19.3 0.00 0.03 0.03 73 1021.0
20260902151806 25 149 8.0 11.3 0.00 0.03 0.03 72 1021.0
20260902151306 25 183 8.0 14.5 0.00 0.03 0.03 74 1021.0
20260902145805 25 210 8.0 16.1 0.00 0.03 0.03 74 1021.0
20260902145306 25 210 8.0 14.5 0.00 0.03 0.03 74 1021.0
20260902142306 26 211 9.7 14.5 0.00 0.03 0.03 69 1021.0
20260902141806 26 244 8.0 14.5 0.00 0.03 0.03 66 1021.0
20260902135307 25 235 11.3 22.5 0.00 0.03 0.03 70 1021.0
20260902133305 27 283 4.8 11.3 0.00 0.03 0.03 64 1021.0
20260902130306 25 277 8.0 16.1 0.00 0.03 0.03 69 1021.0
20260902124806 26 289 4.8 12.9 0.00 0.03 0.03 71 1021.0
20260902124305 25 262 8.0 16.1 0.00 0.03 0.03 73 1021.0
20260902122805 25 257 6.4 12.9 0.00 0.03 0.03 73 1021.0
20260902122305 25 246 8.0 16.1 0.00 0.03 0.03 75 1021.0
20260902121806 23 244 8.0 11.3 0.00 0.03 0.03 76 1021.0
20260902114305 23 214 6.4 14.5 0.00 0.03 0.03 76 1021.0
20260902113305 24 192 8.0 9.7 0.00 0.03 0.03 74 1021.0
20260902112805 24 210 8.0 9.7 0.00 0.03 0.03 74 1021.0
20260902112306 23 206 8.0 12.9 0.00 0.03 0.03 75 1021.0
20260902111805 24 198 6.4 11.3 0.00 0.03 0.03 76 1021.0
20260902111306 25 211 8.0 11.3 0.00 0.03 0.03 73 1021.0
20260902105306 23 167 8.0 9.7 0.00 0.03 0.03 75 1021.0
20260902104806 24 195 8.0 11.3 0.00 0.03 0.03 75 1021.0
20260902104306 24 178 4.8 11.3 0.00 0.03 0.03 76 1021.0
20260902102805 23 184 6.4 9.7 0.00 0.03 0.03 79 1021.0
20260902100305 23 208 4.8 8.0 0.00 0.03 0.03 77 1021.0
20260902095805 23 223 4.8 9.7 0.00 0.03 0.03 78 1021.0
20260902095307 23 201 4.8 9.7 0.00 0.03 0.03 77 1021.0
20260902094805 23 200 4.8 8.0 0.00 0.03 0.03 79 1021.0
20260902092305 23 173 4.8 9.7 0.00 0.03 0.03 75 1021.0
20260902091805 23 163 4.8 9.7 0.00 0.03 0.03 75 1021.0
20260902091306 23 153 4.8 11.3 0.00 0.03 0.03 76 1021.0
20260902090805 23 165 6.4 11.3 0.00 0.03 0.03 75 1021.0
20260902084305 22 174 4.8 4.8 0.00 0.03 0.03 79 1021.0
20260902083305 22 107 3.2 4.8 0.00 0.03 0.03 79 1021.0
20260902082805 22 158 1.6 4.8 0.00 0.03 0.03 81 1021.0
20260902082309 21 169 3.2 4.8 0.00 0.03 0.03 81 1021.0
20260902081805 21 187 3.2 4.8 0.00 0.03 0.03 81 1021.0
20260902081305 21 242 0.0 4.8 0.00 0.03 0.03 81 1021.0
20260902075805 21 355 0.0 1.6 0.00 0.03 0.03 87 1020.0
20260902074805 20 340 0.0 1.6 0.00 0.03 0.03 90 1020.0
20260902073805 19 14 1.6 3.2 0.00 0.03 0.03 90 1020.0
20260902073305 19 335 1.6 3.2 0.00 0.03 0.03 90 1020.0
20260902072805 18 335 1.6 3.2 0.00 0.03 0.03 89 1020.0
20260902063305 18 355 1.6 4.8 0.00 0.03 0.03 91 1020.0
20260902062805 18 334 1.6 4.8 0.00 0.03 0.03 91 1020.0
20260902062306 18 340 1.6 3.2 0.00 0.03 0.03 91 1020.0
20260902060305 18 334 1.6 4.8 0.03 0.03 0.03 91 1020.0
20260902053805 18 13 0.0 3.2 0.03 0.03 0.03 91 1020.0
20260902053305 19 345 1.6 3.2 0.03 0.03 0.03 91 1020.0
20260902051805 19 321 1.6 3.2 0.00 0.00 0.00 91 1020.0
20260902051305 19 347 0.0 3.2 0.00 0.00 0.00 91 1020.0
20260902045306 19 11 1.6 4.8 0.00 0.00 0.00 91 1020.0
20260902044805 19 349 1.6 3.2 0.00 0.00 0.00 90 1020.0
20260902044304 19 348 1.6 3.2 0.00 0.00 0.00 90 1020.0
20260902043805 19 348 1.6 3.2 0.00 0.00 0.00 90 1020.0
20260902042805 19 355 1.6 3.2 0.00 0.00 0.00 90 1020.0
20260902042308 20 8 1.6 3.2 0.00 0.00 0.00 91 1020.0
20260902041305 20 42 0.0 1.6 0.00 0.00 0.00 91 1020.0
20260902040805 20 100 0.0 1.6 0.00 0.00 0.00 91 1020.0
20260902035804 20 41 3.2 4.8 0.00 0.00 0.00 90 1020.0
20260902035305 20 35 1.6 4.8 0.00 0.00 0.00 90 1020.0
20260902034805 20 116 3.2 4.8 0.00 0.00 0.00 90 1020.0
20260902034305 20 83 3.2 4.8 0.00 0.00 0.00 90 1020.0
20260902031804 20 78 3.2 4.8 0.00 0.00 0.00 90 1021.0
20260902031305 20 94 3.2 8.0 0.00 0.00 0.00 90 1021.0
20260902030305 20 33 3.2 4.8 0.00 0.00 0.00 90 1021.0
20260902025805 20 77 3.2 4.8 0.00 0.00 0.00 90 1021.0
20260902025306 20 98 1.6 4.8 0.00 0.00 0.00 90 1021.0
20260902024304 20 35 0.0 3.2 0.00 0.00 0.00 89 1021.0
20260902023804 20 40 1.6 4.8 0.00 0.00 0.00 89 1021.0
20260902023305 20 27 1.6 4.8 0.00 0.00 0.00 89 1021.0
20260902022805 20 15 0.0 3.2 0.00 0.00 0.00 89 1021.0
20260902022306 20 5 0.0 1.6 0.00 0.00 0.00 89 1021.0
20260902021305 20 1 1.6 4.8 0.00 0.00 0.00 89 1021.0
20260902020804 20 25 1.6 4.8 0.00 0.00 0.00 89 1021.0
20260902020305 20 19 1.6 3.2 0.00 0.00 0.00 89 1021.0
20260902015306 20 5 1.6 4.8 0.00 0.00 0.00 89 1021.0
20260902014805 20 317 0.0 3.2 0.00 0.00 0.00 89 1021.0
20260902014305 20 315 1.6 3.2 0.00 0.00 0.00 88 1021.0
20260902013304 20 355 0.0 1.6 0.00 0.00 0.00 88 1021.0
20260902012805 20 11 1.6 3.2 0.00 0.00 0.00 88 1021.0
20260902012309 20 285 0.0 1.6 0.00 0.00 0.00 88 1021.0
20260902005805 20 259 0.0 4.8 0.00 0.00 0.00 89 1022.0
20260902005306 20 313 0.0 0.0 0.00 0.00 0.00 88 1022.0
20260902004805 20 272 0.0 1.6 0.00 0.00 0.00 88 1022.0
20260902004305 20 340 0.0 0.0 0.00 0.00 0.00 88 1022.0
20260902003804 20 340 0.0 0.0 0.00 0.00 0.00 88 1022.0
20260902003305 20 340 0.0 0.0 0.00 0.00 0.00 88 1022.0
20260902002804 20 340 0.0 0.0 0.00 0.00 0.00 88 1022.0
20260902002306 20 355 0.0 0.0 0.00 0.00 0.00 88 1022.0
20260902001805 20 355 0.0 0.0 0.00 0.00 0.00 88 1022.0
20260902001305 20 357 0.0 0.0 0.00 0.00 0.00 88 1022.0
20260902000305 20 31 0.0 0.0 0.00 0.00 0.00 88 1022.0
20260901234805 20 96 0.0 0.0 0.00 0.00 0.00 88 1022.0
20260901234304 20 78 0.0 1.6 0.00 0.00 0.00 88 1022.0
20260901231804 21 40 0.0 1.6 0.00 0.00 0.00 88 1022.0
20260901231305 21 50 0.0 1.6 0.00 0.00 0.00 88 1022.0
20260901222804 21 79 0.0 1.6 0.00 0.00 0.00 87 1022.0
20260901222306 21 57 0.0 3.2 0.00 0.00 0.00 87 1022.0
20260901221304 21 77 1.6 3.2 0.00 0.00 0.00 86 1022.0
20260901220805 21 73 1.6 3.2 0.00 0.00 0.00 86 1022.0
20260901215804 21 68 0.0 1.6 0.00 0.00 0.00 86 1022.0
20260901215306 21 79 0.0 3.2 0.00 0.00 0.00 86 1022.0
20260901214305 21 77 0.0 3.2 0.00 0.00 0.00 85 1022.0
20260901213805 21 86 0.0 3.2 0.00 0.00 0.00 85 1022.0
20260901213304 21 89 0.0 4.8 0.00 0.00 0.00 85 1022.0
20260901212805 21 83 0.0 3.2 0.00 0.00 0.00 84 1022.0
20260901212306 21 86 0.0 1.6 0.00 0.00 0.00 84 1022.0
20260901211805 21 119 0.0 1.6 0.00 0.00 0.00 84 1022.0
20260901210805 21 45 0.0 1.6 0.00 0.00 0.00 83 1022.0
20260901210306 21 70 0.0 3.2 0.00 0.00 0.00 83 1022.0